Regional Weather Roundup
Issued by NWS

Home | Current Version | Previous Version | Graphics & Text | Print | Product List | Glossary On
Versions: 1 2 3 4 5 6 7 8 9 10 11 12 13 14 15 16 17 18 19 20 21 22 23 24 25 26 27 28 29 30 31 32 33 34 35 36 37 38 39 40 41 42 43 44 45 46 47 48 49 50
337
ASUS43 KDMX 211501
RWRIA

WEATHER ROUNDUP FOR IOWA
NATIONAL WEATHER SERVICE DES MOINES IA
900 AM CST SUN JAN 21 2018

NOTE: "FAIR" INDICATES FEW OR NO CLOUDS BELOW 12,000 FEET WITH NO
SIGNIFICANT WEATHER AND/OR OBSTRUCTIONS TO VISIBILITY.

* - THESE STATIONS ARE NOT NWS STATIONS...THUS NOT UNDER NWS
QUALITY CONTROL.  THEY ALSO DO NOT REPORT WEATHER SUCH
AS PRECIPITATION OR FOG.

IAZ001>003-012>014-020>022-031>034-043>046-211600-
   NORTHWEST IOWA

CITY           SKY/WX    TMP DP  RH WIND       PRES   REMARKS
CARROLL *      CLOUDY    36  34  93 NE7       29.85S FOG     WCI  30
DENISON *      CLOUDY    36  34  93 NE10      29.85S WCI  28
LE MARS *      CLOUDY    30  28  93 N6        29.90R WCI  24
ORANGE CITY *  CLOUDY    32  30  93 NE7       29.89R WCI  26
SHELDON *      CLOUDY    34  30  86 NE16      29.87F WCI  23
SIOUX CITY     CLOUDY    33  29  85 NE8       29.88S WCI  26
SPENCER        CLOUDY    33  29  85 NE10      29.90F WCI  25
STORM LAKE *   CLOUDY    32  30  93 NE15      29.86S WCI  22
$$

IAZ055>058-069>071-079>083-090>094-211600-
   SOUTHWEST IOWA

CITY           SKY/WX    TMP DP  RH WIND       PRES   REMARKS
ATLANTIC *     CLOUDY    39  37  93 NE8       29.81S FOG     WCI  34
AUDUBON *      FOG       37  36  93 NE9       29.84S VSB 3/4 WCI  31
CLARINDA *     DRIZZLE   41  41 100 NE5         N/A
COUNCIL BLFS * CLOUDY    39  39 100 NE10      29.79S FOG     WCI  32
CRESTON *      FOG       37  37 100 NE12      29.82S VSB 1/4 WCI  30
HARLAN  *      CLOUDY    37  37 100 NE10      29.85S FOG     WCI  30
LAMONI         FOG       43  42  97 E6        29.80F VSB 1/4
RED OAK *      CLOUDY    41  41 100 NE9       29.79F FOG
SHENANDOAH *   MIX PCPN  41  41 100 NE9       29.78F
$$

IAZ047>049-059>061-072>074-084-211600-
   CENTRAL IOWA

CITY           SKY/WX    TMP DP  RH WIND       PRES   REMARKS
AMES           CLOUDY    37  37 100 NE5       29.87S FOG     WCI  33
ANKENY *       CLOUDY    39  37  93 NE6       29.88R FOG     WCI  35
BOONE *        FOG       36  36 100 NE12      29.85S VSB 3/4 WCI  27
CHARITON *     FOG       41  41 100 E7        29.83S VSB<1/4
DES MOINES     CLOUDY    40  38  93 E8        29.86R FOG     WCI  34
GRINNELL*      CLOUDY    38  37  97 E7        29.88S FOG     WCI  32
KNOXVILLE *    CLOUDY    39  39 100 E6        29.84F FOG     WCI  35
MARSHALLTOWN   FOG       36  36 100 NE8       29.88R VSB 1   WCI  30
NEWTON *       CLOUDY    39  39 100 E8        29.87S FOG     WCI  34
PELLA *        CLOUDY    40  38  93 E5        29.87F FOG
$$

IAZ004>006-015-016-023>025-035-036-211600-
   NORTH CENTRAL IOWA

CITY           SKY/WX    TMP DP  RH WIND       PRES   REMARKS
ALGONA *       CLOUDY    30 N/A N/A NE8       29.91S HAZE    WCI  23
CLARION *      CLOUDY    32  32 100 E12       29.89S FOG     WCI  23
ESTHERVILLE    CLOUDY    29  28  96 NE12      29.90F WCI  19
FORT DODGE *   CLOUDY    32  30  92 NE5       29.88F FOG     WCI  27
MASON CITY     CLOUDY    30  28  92 NE6       29.93S FOG     WCI  24
FOREST CITY *    N/A     32  32 100 E5        29.92S WCI  27
WEBSTER CITY * CLOUDY    36  36 100 E8        29.87R FOG     WCI  29
IOWA FALLS *   FOG       35  34  97 NE7       29.90S VSB 3/4 WCI  29
$$

IAZ007>011-017>019-026>030-037>042-050>054-066-211600-
   NORTHEAST IOWA

CITY           SKY/WX    TMP DP  RH WIND       PRES   REMARKS
CEDAR RAPIDS   CLOUDY    40  37  89 E8        29.89S FOG     WCI  34
CHARLES CITY *   N/A     28  30 100 NE13      29.92S FOG     WCI  18
CLINTON *      CLOUDY    39  37  92 E6        29.94R FOG     WCI  35
DECORAH *      FOG       27  27 100 CALM      29.92S VSB<1/4
DUBUQUE        CLOUDY    34  32  92 NE7       29.93R FOG     WCI  28
MONTICELLO *   CLOUDY    37  37 100 CALM      29.92R FOG
OELWEIN *      FOG       36  36 100 NE7       29.92S VSB 1   WCI  30
WATERLOO       CLOUDY    35  34  96 NE6       29.91S FOG     WCI  30
$$

IAZ064-065-067-068-078-211600-
   EAST CENTRAL IOWA

CITY           SKY/WX    TMP DP  RH WIND       PRES   REMARKS
DAVENPORT      CLOUDY    41  37  86 SE6       29.94R FOG
IOWA CITY      CLOUDY    42  37  82 E3        29.92R
MUSCATINE *    CLOUDY    41  37  87 SE5       29.92R
QUAD CITIES    CLOUDY    41  38  89 SE5       29.92R
$$

IAZ062-063-075>077-085>089-095>099-211600-
   SOUTHEAST IOWA

CITY           SKY/WX    TMP DP  RH WIND       PRES   REMARKS
BURLINGTON     CLOUDY    43  39  86 SE5       29.90S
FAIRFIELD *    CLOUDY    41  39  93 E6        29.88S
FORT MADISON * CLOUDY    43  41  93 SE5       29.91S
KEOKUK *       CLOUDY    43  39  87 E6        29.89S
OTTUMWA        CLOUDY    41  38  89 E9        29.86S FOG
WASHINGTON *   CLOUDY    39  39 100 SE5       29.90S
$$

ABBREVIATIONS USED IN REMARKS
   TC - TEMPERATURES IN CELSIUS
  WCI - WIND CHILL INDEX
   HX - HEAT INDEX
  VSB - VISIBILITY
$$





USA.gov is the U.S. government's official web portal to all federal, state and local government web resources and services.